To NAV CANADA Home Page Login to a new session Search on AWWS site Feedback and Comments Disclaimer Vers la page française équivalente Tips FAQ What's new on the site To the Forecasts and Observations / NOTAM section To "File a Flight Plan" website Publications and other links Update of the User's profile FIC Telephone Numbers My Weather Data Folder Route Weather Data Regional Weather Data Local Weather Data To the Forecasts and Observations / NOTAM section
Request Generated 05/28/2016 at 23:55:55 UTC . Weather information available at that time is displayed.

METAR/TAF

PAULATUK/PAULATUK (NORA ALIQATCHIALUK RUBEN)/NT    

METAR CYPC 282300Z 03013KT 15SM FEW020 FEW100 01/M02 A3043 RMK SC1AC1
SC TR AC TR 0.9/-3.2/0/LAST OBS/NXT 291300Z SLP307=
METAR CYPC 282200Z 03015KT 15SM FEW020 FEW100 00/M02 A3043 RMK SC1AC1
SC TR AC TR SLP307=
METAR CYPC 282100Z 03015KT 15SM FEW020 00/M03 A3043 RMK SC1 SC TR
SLP306=

*** REMARK        : Forecast period has ended; this was the last TAF issued
*** REMARQUE : La période de prévision est échue; ceci était le dernier TAF qui a été émis
TAF AMD CYPC 281929Z 2819/2823 03012KT P6SM FEW020
RMK NXT FCST WILL BE ISSUED AT 291445Z=
Your time UTC time
Weather data provided by Environment Canada and NAV CANADA